KB2KRJ Weather Reports


time (UTC)temp
C
wind
direction
speed
KPH
gust
KPH
rain 1hr
cm
rain 24hr
cm
rain mn
cm
humidity
%
barometer
mb
20260504050018 5 222 0.0 0.0 0.00 0.00 0.00 67 1012.0
20260504044519 5 222 0.0 0.0 0.00 0.00 0.00 67 1012.1
20260504043027 5 222 0.0 0.0 0.00 0.00 0.00 68 1012.3
20260504041512 5 222 0.0 0.0 0.00 0.00 0.00 68 1012.3
20260504040012 5 222 0.0 0.0 0.00 0.00 0.00 68 1012.2
20260504034509 5 222 0.0 0.0 0.00 0.00 0.00 69 1012.1
20260504033009 5 222 0.0 0.0 0.00 0.00 0.00 69 1012.1
20260504031509 5 222 0.0 0.0 0.00 0.00 0.00 70 1012.1
20260504030015 5 222 0.0 0.0 0.00 0.00 0.00 70 1012.0
20260504024510 5 222 0.0 0.0 0.00 0.00 0.00 70 1011.9
20260504023007 6 222 0.0 0.0 0.00 0.00 0.00 68 1011.9
20260504021506 6 222 0.0 0.0 0.00 0.00 0.00 67 1011.9
20260504020008 6 222 0.0 0.0 0.00 0.00 0.00 66 1011.9
20260504014508 6 222 0.0 0.0 0.00 0.00 0.00 65 1012.0
20260504013014 7 222 0.0 0.0 0.00 0.00 0.00 63 1011.9
20260504011503 7 222 0.0 0.0 0.00 0.00 0.00 60 1011.7
20260504010002 8 222 0.0 0.0 0.00 0.00 0.00 58 1011.3
20260504004503 9 222 0.0 0.0 0.00 0.00 0.00 55 1011.2
20260504003005 10 222 0.0 6.4 0.00 0.00 0.00 50 1011.2
20260504001502 10 182 0.0 4.8 0.00 0.00 0.00 48 1010.9
20260504000000 11 176 0.0 4.8 0.00 0.00 0.00 46 1010.9
20260503234502 11 178 0.0 1.6 0.00 0.00 0.00 46 1010.7
20260503233107 11 178 0.0 4.8 0.00 0.00 0.00 43 1010.5
20260503231600 11 199 0.0 8.0 0.00 0.00 0.00 42 1010.4
20260503230116 11 163 3.2 11.3 0.00 0.00 0.00 40 1010.2
20260503224606 12 209 1.6 8.0 0.00 0.00 0.00 37 1010.1
20260503223057 12 215 0.0 9.7 0.00 0.00 0.00 37 1010.0
20260503221604 12 221 0.0 12.9 0.00 0.00 0.00 35 1009.9
20260503220057 12 243 1.6 14.5 0.00 0.00 0.00 33 1009.8
20260503214600 12 210 4.8 16.1 0.00 0.00 0.00 30 1009.8
20260503213056 13 196 6.4 16.1 0.00 0.00 0.00 30 1009.8
20260503211556 12 215 1.6 11.3 0.00 0.00 0.00 30 1009.8
20260503210054 12 207 4.8 11.3 0.00 0.00 0.00 31 1009.6
20260503204552 12 207 4.8 11.3 0.00 0.00 0.00 32 1009.9
20260503203105 13 208 4.8 11.3 0.00 0.00 0.00 33 1010.0
20260503201550 12 211 3.2 12.9 0.00 0.00 0.00 34 1010.0
20260503200048 12 182 3.2 12.9 0.00 0.00 0.00 34 1010.1
20260503194547 13 221 6.4 16.1 0.00 0.00 0.00 35 1010.3
20260503193043 12 50 3.2 17.7 0.00 0.00 0.00 35 1010.6
20260503191546 12 197 3.2 11.3 0.00 0.00 0.00 37 1010.8
20260503190042 11 200 1.6 11.3 0.00 0.00 0.00 37 1010.8
20260503184536 11 190 4.8 11.3 0.00 0.00 0.00 39 1011.3
20260503183033 11 191 3.2 16.1 0.00 0.00 0.00 41 1011.3
20260503181530 10 52 3.2 12.9 0.00 0.00 0.00 40 1011.4
20260503180034 9 207 3.2 14.5 0.00 0.00 0.00 46 1011.5
20260503174528 8 193 6.4 14.5 0.00 0.00 0.00 44 1011.6
20260503173028 8 248 3.2 11.3 0.00 0.00 0.00 43 1011.8
20260503171527 8 216 1.6 11.3 0.00 0.00 0.00 44 1011.7
20260503081536 2 87 0.0 4.8 0.00 0.03 0.00 69 1012.1
20260503071529 2 64 0.0 6.4 0.00 0.03 0.00 70 1012.2